Regional Weather Roundup
Issued by NWS

Home | Current Version | Previous Version | Graphics & Text | Print | Product List | Glossary On
Versions: 1 2 3 4 5 6 7 8 9 10 11 12 13 14 15 16 17 18 19 20 21 22 23 24 25 26 27 28 29 30 31 32 33 34 35 36 37 38 39 40 41 42 43 44 45 46 47 48 49 50
000
ASUS43 KOAX 200102
RWRNE

WEATHER ROUNDUP FOR NEBRASKA
NATIONAL WEATHER SERVICE OMAHA NE
800 PM CDT TUE AUG 19 2014

NOTES: SATELLITE DATA IS BEING USED TO AUGMENT CLOUD COVER ABOVE
       12000 FEET.
       "FAIR" INDICATES FEW OR NO CLOUDS BELOW 12,000 FEET WITH NO
       SIGNIFICANT WEATHER AND/OR OBSTRUCTIONS TO VISIBILITY.

  * THESE STATIONS DO NOT REPORT WEATHER SUCH AS RAIN...SNOW OR FOG.

NEZ001>004-019>022-054>056-200200-
NEBRASKA PANHANDLE

CITY           SKY/WX    TMP DP  RH WIND       PRES   REMARKS
SCOTTSBLUFF    CLOUDY    75  57  53 SE9       29.82R
ALLIANCE       CLOUDY    83  45  26 W13G25    29.84R
CHADRON        MOCLDY    91  54  28 S18G26    29.70S
KIMBALL        MOCLDY    75  49  40 NE9       29.85S
SIDNEY         CLOUDY    78  51  38 N21G33    29.87R
$$

NEZ057>060-069>072-079>082-200200-
SOUTHWEST NEBRASKA

CITY           SKY/WX    TMP DP  RH WIND       PRES   REMARKS
NORTH PLATTE   PTCLDY    79  68  69 E14       29.75F
IMPERIAL       PTCLDY    86  62  44 E9        29.75F
LEXINGTON      CLEAR     82  69  65 E9        29.76S
MCCOOK         CLEAR     88  63  43 E14       29.74S
OGALLALA       CLOUDY    82  60  47 E7        29.77S
$$

NEZ005>010-023>029-035>040-094-200200-
NORTH CENTRAL NEBRASKA

CITY           SKY/WX    TMP DP  RH WIND       PRES   REMARKS
VALENTINE      MOCLDY    84  62  47 SE14      29.76F
AINSWORTH      MOCLDY    80  64  59 SE12      29.79F
BROKEN BOW     CLEAR     81  68  64 SE9       29.79S
O`NEILL        MOCLDY    80  67  65 SE8       29.80S
ORD            CLOUDY    81  70  69 E8        29.77F
THEDFORD       PTCLDY    82  65  55 SE8       29.79F
$$

NEZ041-046>049-061>064-073>077-083>087-200200-
SOUTH CENTRAL NEBRASKA

CITY           SKY/WX    TMP DP  RH WIND       PRES   REMARKS
GRAND ISLAND   PTCLDY    83  69  62 SE7       29.78F
AURORA         PTCLDY    83  71  68 SE5       29.79S
HASTINGS       CLEAR     83  67  58 SE10      29.77F
HEBRON         CLEAR     82  69  64 SE5       29.77F
HOLDREGE       CLEAR     79  71  76 E7        29.76S
KEARNEY *      CLEAR     81  68  65 E9        29.78S
$$

NEZ011>018-030>034-042>045-200200-
NORTHEAST NEBRASKA

CITY           SKY/WX    TMP DP  RH WIND       PRES   REMARKS
NORFOLK        PTCLDY    79  66  64 SE6       29.79S
ALBION         PTCLDY    79  67  67 E5        29.79F
BLAIR          CLEAR     80  67  63 E6        29.79F
COLUMBUS *     CLEAR     77  70  78 E6        29.79S
FREMONT        CLEAR     82  64  54 E3        29.79S
TEKAMAH        CLEAR     80  70  71 E5        29.78S
WAYNE          CLEAR     75  71  88 SE5       29.80S
$$

NEZ050>053-065>068-078-088>093-200200-
SOUTHEAST NEBRASKA

CITY           SKY/WX    TMP DP  RH WIND       PRES   REMARKS
LINCOLN        CLEAR     82  68  62 NE6       29.77F
OMAHA EPPLEY   PTCLDY    82  66  58 E5        29.79R
BEATRICE       CLEAR     87  71  60 SE5       29.77S HX  92
FALLS CITY     CLEAR     82  74  76 E6        29.77F
NEBRASKA CITY  CLEAR     80  69  68 SE5       29.79S
PLATTSMOUTH    CLEAR     81  68  65 E5        29.78F
$$

NEZ044-045-051>053-067-200200-
OMAHA AREA

CITY           SKY/WX    TMP DP  RH WIND       PRES   REMARKS
OMAHA EPPLEY   PTCLDY    82  66  58 E5        29.79R
BLAIR          CLEAR     80  67  63 E6        29.79F
FREMONT        CLEAR     82  64  54 E3        29.79S
MILLARD        CLEAR     83  67  58 SE3       29.77F
OFFUTT AFB     CLEAR     81  72  75 E6        29.78S
PLATTSMOUTH    CLEAR     81  68  65 E5        29.78F
WAHOO          FAIR      79  70  75 NE3       29.78F
$$



USA.gov is the U.S. government's official web portal to all federal, state and local government web resources and services.